Weather History for KTRL - August, 2014

Change the Weather History Date:

Monday, August 11, 2014

  Actual Average (KDFW) Record (KDFW)
Temperature  
Mean Temperature 87 °F 86 °F  
Max Temperature 97 °F 97 °F 112 °F (1936)
Min Temperature 78 °F 76 °F 64 °F (1989)
Degree Days  
Heating Degree Days 0 0  
Month to date heating degree days 0  
Since 1 June heating degree days 0  
Since 1 July heating degree days 0  
Cooling Degree Days 22 21  
Month to date cooling degree days 231  
Year to date cooling degree days 1775  
Since 1 June cooling degree days 1353  
Growing Degree Days 37 (Base 50)    
Moisture  
Dew Point 69 °F    
Average Humidity 58    
Maximum Humidity 87    
Minimum Humidity 33    
Precipitation  
Precipitation 0.00 in 0.06 in 3.57 in (1906)
Month to date precipitation 0.61  
Year to date precipitation 22.81  
Sea Level Pressure  
Sea Level Pressure 30.00 in    
Wind  
Wind Speed 5 mph (NNE)    
Max Wind Speed 14 mph    
Max Gust Speed 20 mph    
Visibility 10 miles    
Events      
T = Trace of Precipitation, MM = Missing Value Source: NWS Daily Summary

Daily Weather History Graph

Daily Weather History Graph

Search for Another Location

Airport or City:

Trip Planner

Search our weather history database for the weather conditions in past years. The results will help you decide how hot, cold, wet, or windy it might be!

Date:

Astronomy

Aug. 11, 2014 Rise Set
Actual Time 6:45 AM CDT 8:14 PM CDT
Civil Twilight 6:19 AM CDT 8:40 PM CDT
Nautical Twilight 5:48 AM CDT 9:11 PM CDT
Astronomical Twilight 5:15 AM CDT 9:44 PM CDT
Moon 8:51 PM CDT (8/11) 7:46 AM CDT (8/11)
Length of Visible Light 14h 20m
Length of Day
13h 28m
Full, 99% of the Moon is Illuminated
Aug 11
Full
Aug 17
Last Quarter
Aug 25
New
Sep 2
First Quarter
Sep 8
Full

Hourly Weather History & Observations

Time (CDT) Temp. Heat Index Dew Point Humidity Pressure Visibility Wind Dir Wind Speed Gust Speed Precip Events Conditions
12:53 AM 81.0 °F 86.2 °F 73.9 °F 79% 29.99 in 10.0 mi West 6.9 mph - N/A   Clear
1:53 AM 82.0 °F 86.7 °F 72.0 °F 71% 29.98 in 10.0 mi SW 3.5 mph - N/A   Clear
2:53 AM 81.0 °F 85.8 °F 73.0 °F 77% 29.97 in 10.0 mi Calm Calm - N/A   Clear
3:53 AM 79.0 °F - 73.9 °F 84% 29.98 in 10.0 mi NE 3.5 mph - N/A   Clear
4:53 AM 79.0 °F - 73.9 °F 84% 29.99 in 10.0 mi North 4.6 mph - N/A   Clear
5:53 AM 79.0 °F - 73.9 °F 84% 29.98 in 10.0 mi South 3.5 mph - N/A   Clear
6:53 AM 78.1 °F - 73.9 °F 87% 30.00 in 10.0 mi NNE 3.5 mph - N/A   Clear
7:53 AM 81.0 °F 85.2 °F 72.0 °F 74% 30.01 in 10.0 mi Calm Calm - N/A   Clear
8:53 AM 84.0 °F 89.6 °F 72.0 °F 67% 30.01 in 10.0 mi ENE 3.5 mph - N/A   Clear
9:53 AM 86.0 °F 92.2 °F 72.0 °F 63% 30.03 in 10.0 mi ENE 4.6 mph - N/A   Clear
10:53 AM 90.0 °F 96.9 °F 72.0 °F 55% 30.04 in 10.0 mi North 5.8 mph - N/A   Clear
11:53 AM 91.9 °F 99.5 °F 72.0 °F 52% 30.04 in 10.0 mi NNE 9.2 mph - N/A   Clear
12:53 PM 96.1 °F 99.3 °F 66.0 °F 37% 30.03 in 10.0 mi NNW 9.2 mph - N/A   Clear
1:53 PM 96.1 °F 99.3 °F 66.0 °F 37% 30.01 in 10.0 mi North 6.9 mph 18.4 mph N/A   Clear
2:53 PM 96.1 °F 99.3 °F 66.0 °F 37% 29.98 in 10.0 mi North 11.5 mph 19.6 mph N/A   Clear
3:53 PM 95.0 °F 95.6 °F 62.1 °F 33% 29.96 in 10.0 mi North 10.4 mph 16.1 mph N/A   Clear
4:53 PM 96.1 °F 97.3 °F 63.0 °F 33% 29.96 in 10.0 mi North 13.8 mph - N/A   Clear
5:53 PM 95.0 °F 96.0 °F 63.0 °F 34% 29.95 in 10.0 mi NNE 10.4 mph - N/A   Clear
6:53 PM 93.9 °F 96.1 °F 64.9 °F 38% 29.96 in 10.0 mi NNE 10.4 mph - N/A   Clear
7:53 PM 91.0 °F 92.6 °F 64.0 °F 41% 29.98 in 10.0 mi NNE 10.4 mph - N/A   Clear
8:53 PM 86.0 °F 88.2 °F 66.0 °F 51% 30.00 in 10.0 mi NE 5.8 mph - N/A   Clear
9:53 PM 84.9 °F 87.1 °F 66.0 °F 53% 30.01 in 10.0 mi North 4.6 mph - N/A   Clear
10:53 PM 81.0 °F 83.3 °F 66.9 °F 62% 30.03 in 10.0 mi Calm Calm - N/A   Clear
11:53 PM 80.1 °F 82.9 °F 69.1 °F 69% 30.03 in 10.0 mi Calm Calm - N/A   Clear